Miscellaneous Local Product
Issued by NWS North Platte, NE

Home | Current Version | Previous Version | Text Only | Print | Product List | Glossary On
Versions: 1 2 3 4 5 6 7 8 9 10 11 12 13 14 15 16 17 18 19 20 21 22 23 24 25 26 27 28 29 30 31 32 33 34 35 36 37 38 39 40 41 42 43 44 45 46 47 48 49 50
867
AXUS43 KLBF 310010
MISLBF


WESTERN AND NORTH CENTRAL NEBRASKA HOURLY WEATHER ROUNDUP
NATIONAL WEATHER SERVICE NORTH PLATTE NE
700 PM CDT SAT JUL 30 2016

NOTE: "FAIR" INDICATES FEW OR NO CLOUDS BELOW 12,000 FEET WITH NO
SIGNIFICANT WEATHER AND/OR OBSTRUCTIONS TO VISIBILITY.

NOTE: STATIONS NOT REPORTING VARIABLES SUCH AS SKY/WEATHER OR
PRESSURE ARE PROVIDED BY RAWS AND APRS NETWORKS AND ARE NOT UNDER
NATIONAL WEATHER SERVICE QUALITY CONTROL.

...OBSERVATIONS IN AND NEAR THE EASTERN PANHANDLE OF NEBRASKA...

CITY           SKY/WX    TMP DP  RH WIND       PRES   REMARKS
PINE RIDGE     SUNNY     89  58  34 S20G26    29.83F
CHADRON        SUNNY     90  58  33 S22       29.81F
ALLIANCE       SUNNY     85  59  41 SE17      29.90F
SIDNEY         SUNNY     86  58  38 SE16      29.96F
$$

...OBSERVATIONS IN NORTHERN NEBRASKA AND FAR SOUTHERN SOUTH DAKOTA...

CITY           SKY/WX    TMP DP  RH WIND       PRES   REMARKS
WINNER         FAIR      85  64  49 SE15      29.85F
VALENTINE      SUNNY     84  61  45 S13       29.87F
THEDFORD       SUNNY     85  67  54 S13G18    29.91F
AINSWORTH      SUNNY     82  66  58 S13       29.90F
O`NEILL        MOSUNNY   80  65  61 SE13G18   29.92F
ORD            MOSUNNY   82  68  62 SE9       29.91F
BROKEN BOW     MOSUNNY   81  68  64 S10       29.92F
VALENTINE NWR    N/A     87  63  44 S10         N/A
BUTTE            N/A     79  67  65 SE17        N/A
HALSEY           N/A     84  65  52 SE8         N/A
EWING            N/A     79  69  71 SE3         N/A
$$

...OBSERVATIONS IN SOUTHWEST NEBRASKA AND FAR NORTHEAST COLORADO...

CITY           SKY/WX    TMP DP  RH WIND       PRES   REMARKS
WRAY           FAIR      90  55  31 SE13      29.92F
HOLYOKE        FAIR      86  61  42 SE13      29.93S
IMPERIAL       SUNNY     88  60  38 SE15      29.90F
OGALLALA       SUNNY     89  58  34 SE9       29.91F
NORTH PLATTE   SUNNY     84  67  56 SE8       29.90F
MCCOOK         SUNNY     89  61  38 SE13      29.89F
LEXINGTON      SUNNY     83  67  58 SE12      29.92S
STAPLETON        N/A     84  71  65 CALM        N/A
GOTHENBURG       N/A     85  65  51 SE6         N/A
CALLAWAY         N/A     83  72  69 S10         N/A
$$

...OBSERVATIONS IN CENTRAL LINCOLN COUNTY AREA...

CITY           SKY/WX    TMP DP  RH WIND       PRES   REMARKS
N.P. AIRPORT   SUNNY     84  67  56 SE8       29.90F
N.P. DOWNTOWN    N/A     86  68  54 SE3G12      N/A
N.P. HILLCREST   N/A     84  69  59 SE12        N/A
$$

...SOME OBSERVATIONS FROM AROUND THE REGION...

CITY           SKY/WX    TMP DP  RH WIND       PRES   REMARKS
DENVER         MOSUNNY   89  45  21 NE14      29.99R
LARAMIE        CLOUDY    83  30  14 NW15G24   30.10F
CHEYENNE       CLOUDY    84  49  29 S10G21    30.04S
SCOTTSBLUFF    SUNNY     88  61  40 E15G23    29.88F
RAPID CITY     CLOUDY    87  53  31 SE12      29.78F
BISMARCK       SUNNY     85  65  51 SE10      29.80F
PIERRE         SUNNY     89  61  38 SE22      29.78F
SIOUX FALLS    MOSUNNY   79  58  48 SE14      29.94F
OMAHA          MOSUNNY   81  64  56 SE13      29.95S
GRAND ISLAND   SUNNY     80  69  69 SE13      29.94S
KANSAS CITY    MOSUNNY   83  64  52 NE9       29.95S
WICHITA        MOSUNNY   87  69  54 E12       29.91S HX  91
OKLAHOMA CITY  PTSUNNY   89  76  65 E10       29.89F HX 100
DALLAS         MOSUNNY   97  63  32 S13       29.89S HX  98
AMARILLO       SUNNY     90  59  35 S15       29.98F
DODGE CITY     SUNNY     90  65  43 S17G24    29.90S HX  92
HAYS           SUNNY     90  64  43 SE17      29.89S HX  91
GOODLAND       SUNNY     89  61  38 SE14      29.91F
$$




USA.gov is the U.S. government's official web portal to all federal, state and local government web resources and services.